Weather History for Zagreb Pleso, Croatia

Change the Weather History Date:

Wednesday, December 12, 2012

  Actual Average Record
Temperature  
Mean Temperature 18 °F -  
Max Temperature 30 °F - - ()
Min Temperature 6 °F - - ()
Degree Days  
Heating Degree Days 47    
Moisture  
Dew Point 14 °F    
Average Humidity 91    
Maximum Humidity 100    
Minimum Humidity 75    
Precipitation  
Precipitation 0.00 in - - ()
Sea Level Pressure  
Sea Level Pressure 30.18 in    
Wind  
Wind Speed 1 mph ()    
Max Wind Speed 5 mph    
Max Gust Speed -    
Visibility 1.0 miles    
Events Fog    
T = Trace of Precipitation, MM = Missing Value Source: Averaged Metar Reports

Daily Weather History Graph

Daily Weather History Graph

Search for Another Location

Airport:

Trip Planner

Search our weather history database for the weather conditions in past years. The results will help you decide how hot, cold, wet, or windy it might be!

Date:

Astronomy

Dec. 12, 2012 Rise Set
Actual Time 7:27 AM CET 4:11 PM CET
Civil Twilight 6:53 AM CET 4:45 PM CET
Nautical Twilight 6:15 AM CET 5:23 PM CET
Astronomical Twilight 5:39 AM CET 5:59 PM CET
Moon 6:10 AM CET (12/12) 3:31 PM CET (12/12)
Length of Visible Light 9h 52m
Length of Day
8h 43m
Waning Crescent, 1% of the Moon is Illuminated
Dec 12
Waning Crescent
Dec 13
New
Dec 20
First Quarter
Dec 28
Full
Jan 5
Last Quarter

Hourly Weather History & Observations

Time (CET) Temp. Windchill Dew Point Humidity Pressure Visibility Wind Dir Wind Speed Gust Speed Precip Events Conditions
12:00 AM 17.6 °F - 15.8 °F 93% 30.12 in 0.2 mi Calm Calm - N/A Fog Light Freezing Fog
12:30 AM 15.8 °F - 14.0 °F 93% 30.12 in 0.9 mi WNW 2.3 mph - N/A Fog Patches of Fog
1:00 AM 17 °F - 15 °F 89% 30.17 in 1 mi West 2.2 mph - - Fog Patches of Fog
1:00 AM 15.8 °F 10.2 °F 15.8 °F 100% 30.12 in 0.9 mi West 3.5 mph - N/A Fog Patches of Fog
1:30 AM 17.6 °F - 17.6 °F 100% 30.12 in 0.4 mi Variable 2.3 mph - N/A Fog Light Freezing Fog
2:00 AM 17.6 °F - 15.8 °F 93% 30.12 in 0.6 mi Calm Calm - N/A Fog Patches of Fog
2:30 AM 17.6 °F - 15.8 °F 93% 30.12 in 0.9 mi SW 1.2 mph - N/A Fog Patches of Fog
3:00 AM 15.8 °F - 14.0 °F 93% 30.12 in 1.2 mi West 1.2 mph - N/A Fog Patches of Fog
3:30 AM 15.8 °F - 15.8 °F 100% 30.12 in 1.2 mi WSW 1.2 mph - N/A   Mist
4:00 AM 16 °F - 14 °F 90% 30.18 in 4 mi West 2.2 mph - -   Mist
4:00 AM 15.8 °F 10.2 °F 14.0 °F 93% 30.12 in 3.7 mi West 3.5 mph - N/A   Unknown
4:30 AM 15.8 °F - 15.8 °F 100% 30.12 in 3.7 mi WSW 2.3 mph - N/A   Unknown
5:00 AM 14.0 °F - 12.2 °F 93% 30.12 in 0.1 mi WSW 2.3 mph - N/A Fog Patches of Fog
5:30 AM 12.2 °F 6.1 °F 12.2 °F 100% 30.12 in 0.2 mi WSW 3.5 mph - N/A Fog Light Freezing Fog
6:00 AM 12.2 °F 4.3 °F 10.4 °F 92% 30.15 in 0.1 mi WSW 4.6 mph - N/A Fog Light Freezing Fog
6:30 AM 10.4 °F - 10.4 °F 100% 30.15 in 0.1 mi Variable 1.2 mph - N/A Fog Light Freezing Fog
7:00 AM 11 °F - 9 °F 88% 30.20 in 0 mi WSW 2.2 mph - - Fog Partial Fog
7:00 AM 10.4 °F - 8.6 °F 92% 30.15 in 0.6 mi WSW 1.2 mph - N/A Fog Light Freezing Fog
7:30 AM 10.4 °F - 8.6 °F 92% 30.15 in 0.9 mi Calm Calm - N/A   Unknown
8:00 AM 12.2 °F - 10.4 °F 92% 30.15 in 1.6 mi WSW 2.3 mph - N/A   Mist
8:30 AM 10.4 °F 4.0 °F 8.6 °F 92% 30.18 in 0.1 mi WSW 3.5 mph - N/A Fog Patches of Fog
9:00 AM 12.2 °F - 10.4 °F 92% 30.18 in 0.6 mi SW 2.3 mph - N/A Fog Patches of Fog
9:30 AM 14.0 °F - 12.2 °F 93% 30.18 in 1.2 mi WSW 2.3 mph - N/A   Partly Cloudy
10:00 AM 17 °F - 15 °F 88% 30.24 in 1 mi Calm Calm - -   Mist
10:00 AM 17.6 °F - 15.8 °F 93% 30.18 in 1.2 mi Variable 1.2 mph - N/A   Partly Cloudy
10:30 AM 19.4 °F - 17.6 °F 93% 30.21 in 1.2 mi Variable 1.2 mph - N/A   Partly Cloudy
11:00 AM 21.2 °F - 19.4 °F 93% 30.18 in 1.2 mi Calm Calm - N/A   Partly Cloudy
11:30 AM 23.0 °F - 21.2 °F 93% 30.18 in 1.6 mi Calm Calm - N/A   Partly Cloudy
12:00 PM 24.8 °F - 23.0 °F 93% 30.18 in 1.6 mi Calm Calm - N/A   Partly Cloudy
12:30 PM 26.6 °F - 23.0 °F 86% 30.18 in 2.2 mi Calm Calm - N/A   Partly Cloudy
1:00 PM 26.6 °F - 21.2 °F 80% 30.18 in 2.2 mi Calm Calm - N/A   Partly Cloudy
1:30 PM 28.4 °F - 23.0 °F 80% 30.18 in 2.5 mi Calm Calm - N/A   Partly Cloudy
2:00 PM 30.2 °F - 24.8 °F 80% 30.18 in 2.5 mi Calm Calm - N/A   Partly Cloudy
2:30 PM 30.2 °F - 24.8 °F 80% 30.18 in 2.5 mi WSW 1.2 mph - N/A   Mist
3:00 PM 30.2 °F - 23.0 °F 75% 30.18 in 1.9 mi Calm Calm - N/A   Mist
3:30 PM 28.4 °F - 23.0 °F 80% 30.18 in 1.6 mi Variable 1.2 mph - N/A   Mist
4:00 PM 26 °F - 22 °F 76% 30.22 in 1 mi Calm Calm - -   Mist
4:00 PM 26.6 °F - 21.2 °F 80% 30.18 in 0.9 mi Calm Calm - N/A   Mist
4:30 PM 21.2 °F 16.4 °F 19.4 °F 93% 30.18 in 1.9 mi East 3.5 mph - N/A Fog Fog
5:00 PM 19.4 °F - 15.8 °F 86% 30.18 in 2.5 mi Calm Calm - N/A Fog Fog
5:30 PM 17.6 °F - 15.8 °F 93% 30.18 in 1.9 mi Calm Calm - N/A Fog Fog
6:00 PM 17.6 °F 12.3 °F 17.6 °F 100% 30.18 in 0.5 mi NNE 3.5 mph - N/A Fog Patches of Fog
6:30 PM 17.6 °F - 15.8 °F 93% 30.21 in 0.1 mi NNE 2.3 mph - N/A Fog Patches of Fog
7:00 PM 13 °F - 11 °F 88% 30.25 in 0 mi Calm Calm - - Fog Partial Fog
7:00 PM 12.2 °F - 10.4 °F 92% 30.21 in 0.0 mi Calm Calm - N/A Fog Light Freezing Fog
7:30 PM 10.4 °F 4.0 °F 8.6 °F 92% 30.21 in 0.0 mi SW 3.5 mph - N/A Fog Light Freezing Fog
8:00 PM 8.6 °F - 6.8 °F 92% 30.21 in 0.0 mi WSW 2.3 mph - N/A Fog Light Freezing Fog
8:30 PM 8.6 °F - 6.8 °F 92% 30.21 in 0.0 mi WSW 2.3 mph - N/A Fog Light Freezing Fog
9:00 PM 8.6 °F - 6.8 °F 92% 30.21 in 0.0 mi SW 1.2 mph - N/A Fog Light Freezing Fog
9:30 PM 8.6 °F - 6.8 °F 92% 30.21 in 0.0 mi Calm Calm - N/A Fog Light Freezing Fog
10:00 PM 8 °F - 6 °F 85% 30.27 in 0 mi Calm Calm - - Fog Partial Fog
10:00 PM 6.8 °F - 5.0 °F 92% 30.21 in 0.0 mi Variable 1.2 mph - N/A Fog Light Freezing Fog
10:30 PM 8.6 °F - 6.8 °F 92% 30.21 in 0.0 mi Calm Calm - N/A Fog Light Freezing Fog
11:00 PM 6.8 °F - 5.0 °F 92% 30.21 in 0.0 mi Variable 1.2 mph - N/A Fog Light Freezing Fog
11:30 PM 6.8 °F - 5.0 °F 92% 30.24 in 0.1 mi Calm Calm - N/A Fog Light Freezing Fog